When you browse on this site, cookies collect data to enhance your experience and personalize the content and advertising you see.
Visit our Privacy Policy to learn more. By continuing to use the site, you agree to this use of cookies and data.
  • In Hungary
  • List of Countries
  • For 7 days
  • Water Temperature
  • Satellite Maps
  • Weather Map
  • News
  • Weather Widgets
  • user-avatar
    Login

    Hourly Weather Piaski

    Today, 15 December, Saturday

    Time Temperature Precipitation Wind Pressure Humidity
    00:00 -2°C° 0 mm 3 mps 756 mmHg 90%
    01:00 -2°C° 0 mm 2 mps 756 mmHg 91%
    02:00 -2°C° 0 mm 2 mps 756 mmHg 91%
    03:00 -2°C° 0 mm 3 mps 756 mmHg 91%
    04:00 -2°C° 0 mm 3 mps 756 mmHg 91%
    05:00 -2°C° 0 mm 3 mps 756 mmHg 90%
    06:00 -2°C° 0 mm 3 mps 756 mmHg 89%
    07:00 -2°C° 0 mm 2 mps 756 mmHg 90%
    08:00 -2°C° 0 mm 3 mps 756 mmHg 86%
    09:00 -1°C° 0 mm 3 mps 756 mmHg 83%
    10:00 -2°C° 0 mm 4 mps 756 mmHg 80%
    11:00 -2°C° 0 mm 4 mps 756 mmHg 77%
    12:00 -2°C° 0 mm 4 mps 756 mmHg 74%
    13:00 -2°C° 0 mm 4 mps 756 mmHg 73%
    14:00 -2°C° 0 mm 4 mps 755 mmHg 75%
    15:00 -2°C° 0 mm 4 mps 755 mmHg 77%
    16:00 -2°C° 0 mm 3 mps 755 mmHg 79%
    17:00 -2°C° 0 mm 3 mps 755 mmHg 80%
    18:00 -2°C° 0 mm 3 mps 755 mmHg 81%
    19:00 -2°C° 0 mm 3 mps 755 mmHg 82%
    20:00 -2°C° 0 mm 3 mps 754 mmHg 83%
    21:00 -2°C° 0 mm 3 mps 754 mmHg 84%
    22:00 -2°C° 0 mm 3 mps 754 mmHg 85%
    23:00 -4°C° 0 mm 3 mps 753 mmHg 85%

    Tomorrow, 16 December, Sunday

    Time Temperature Precipitation Wind Pressure Humidity
    00:00 -4°C° 0 mm 3 mps 753 mmHg 86%
    01:00 -4°C° 0 mm 3 mps 753 mmHg 87%
    02:00 -3°C° 0 mm 2 mps 752 mmHg 87%
    03:00 -3°C° 0 mm 2 mps 752 mmHg 87%
    04:00 -3°C° 0 mm 2 mps 752 mmHg 88%
    05:00 -3°C° 0 mm 2 mps 751 mmHg 88%
    06:00 -1°C° 0 mm 1 mps 751 mmHg 89%
    07:00 -1°C° 0 mm 1 mps 751 mmHg 89%
    08:00 -1°C° 0 mm 1 mps 751 mmHg 87%
    09:00 -1°C° 0 mm 1 mps 751 mmHg 85%
    10:00 0°C° 0 mm 1 mps 751 mmHg 84%
    11:00 0°C° 0 mm 1 mps 750 mmHg 81%
    12:00 +1°C° 0 mm 1 mps 750 mmHg 78%
    13:00 +1°C° 0 mm 1 mps 750 mmHg 75%
    14:00 -2°C° 0 mm 2 mps 750 mmHg 78%
    15:00 -2°C° 0 mm 2 mps 750 mmHg 81%
    16:00 -3°C° 0 mm 2 mps 750 mmHg 84%
    17:00 -3°C° 0 mm 2 mps 750 mmHg 84%
    18:00 -3°C° 0 mm 2 mps 750 mmHg 84%
    19:00 -3°C° 0 mm 2 mps 750 mmHg 85%
    20:00 -4°C° 0 mm 3 mps 750 mmHg 83%
    21:00 -4°C° 0 mm 3 mps 750 mmHg 82%
    22:00 -4°C° 0 mm 3 mps 750 mmHg 81%
    23:00 -4°C° 0 mm 3 mps 750 mmHg 80%

    Day after tomorrow, 17 December, Monday

    Time Temperature Precipitation Wind Pressure Humidity
    00:00 -4°C° 0 mm 3 mps 750 mmHg 79%
    01:00 -4°C° 0 mm 3 mps 750 mmHg 79%
    02:00 -4°C° 0 mm 3 mps 751 mmHg 79%
    03:00 -4°C° 0 mm 3 mps 751 mmHg 80%
    04:00 -4°C° 0 mm 3 mps 751 mmHg 81%
    05:00 -3°C° 0 mm 2 mps 751 mmHg 82%
    06:00 -3°C° 0 mm 2 mps 751 mmHg 83%
    07:00 -2°C° 0 mm 2 mps 751 mmHg 84%
    08:00 -2°C° 0 mm 2 mps 752 mmHg 82%
    09:00 -1°C° 0 mm 2 mps 752 mmHg 81%
    10:00 -1°C° 0 mm 2 mps 752 mmHg 80%
    11:00 +1°C° 0 mm 2 mps 753 mmHg 79%
    12:00 +2°C° 0 mm 2 mps 753 mmHg 79%
    13:00 +2°C° 0 mm 2 mps 753 mmHg 78%
    14:00 +3°C° 0 mm 1 mps 753 mmHg 81%
    15:00 +2°C° 0 mm 1 mps 754 mmHg 84%
    16:00 +1°C° 0 mm 1 mps 754 mmHg 87%
    17:00 +1°C° 0 mm 1 mps 755 mmHg 87%
    18:00 +1°C° 0 mm 1 mps 755 mmHg 87%
    19:00 +1°C° 0 mm 1 mps 756 mmHg 88%
    20:00 +1°C° 0 mm 1 mps 756 mmHg 88%
    21:00 +1°C° 0 mm 1 mps 756 mmHg 88%
    22:00 +1°C° 0 mm 1 mps 757 mmHg 88%
    23:00 -1°C° 0 mm 2 mps 757 mmHg 88%

    18 December, Tuesday

    Time Temperature Precipitation Wind Pressure Humidity
    00:00 -1°C° 0 mm 2 mps 757 mmHg 88%
    01:00 -1°C° 0 mm 2 mps 757 mmHg 88%
    02:00 -1°C° 0 mm 2 mps 757 mmHg 87%
    03:00 +1°C° 0 mm 1 mps 757 mmHg 87%
    04:00 +1°C° 0 mm 1 mps 757 mmHg 87%
    05:00 +1°C° 0.1 mm 1 mps 758 mmHg 87%
    06:00 +1°C° 0.1 mm 1 mps 758 mmHg 87%
    07:00 +1°C° 0.1 mm 1 mps 758 mmHg 87%
    08:00 +2°C° 0 mm 1 mps 758 mmHg 86%
    09:00 +2°C° 0 mm 1 mps 758 mmHg 85%
    10:00 +2°C° 0 mm 1 mps 759 mmHg 84%
    11:00 +3°C° 0 mm 1 mps 758 mmHg 84%
    12:00 +3°C° 0 mm 1 mps 758 mmHg 84%
    13:00 +3°C° 0 mm 1 mps 758 mmHg 84%
    14:00 +3°C° 0 mm 1 mps 758 mmHg 86%
    15:00 +2°C° 0 mm 1 mps 758 mmHg 87%
    16:00 +1°C° 0 mm 1 mps 758 mmHg 89%
    17:00 +1°C° 0 mm 1 mps 758 mmHg 89%
    18:00 +1°C° 0 mm 1 mps 759 mmHg 90%
    19:00 -2°C° 0 mm 2 mps 759 mmHg 90%
    20:00 -2°C° 0 mm 2 mps 758 mmHg 90%
    21:00 -2°C° 0 mm 2 mps 758 mmHg 90%
    22:00 -2°C° 0 mm 2 mps 758 mmHg 90%
    23:00 -2°C° 0 mm 2 mps 758 mmHg 90%

    19 December, Wednesday

    Time Temperature Precipitation Wind Pressure Humidity
    00:00 -2°C° 0 mm 2 mps 758 mmHg 90%
    01:00 -2°C° 0 mm 2 mps 758 mmHg 90%
    02:00 -2°C° 0 mm 3 mps 758 mmHg 90%
    03:00 -2°C° 0 mm 3 mps 757 mmHg 90%
    04:00 -4°C° 0 mm 3 mps 757 mmHg 89%
    05:00 -4°C° 0 mm 3 mps 757 mmHg 89%
    06:00 -4°C° 0 mm 3 mps 757 mmHg 88%
    07:00 -4°C° 0 mm 3 mps 757 mmHg 87%
    08:00 -3°C° 0 mm 4 mps 757 mmHg 84%
    09:00 -3°C° 0 mm 4 mps 757 mmHg 81%
    10:00 -2°C° 0 mm 4 mps 757 mmHg 78%
    11:00 -1°C° 0 mm 4 mps 756 mmHg 76%
    12:00 0°C° 0 mm 3 mps 756 mmHg 75%
    13:00 +1°C° 0 mm 3 mps 756 mmHg 73%
    14:00 0°C° 0 mm 3 mps 756 mmHg 75%
    15:00 -2°C° 0 mm 4 mps 756 mmHg 78%
    16:00 -2°C° 0 mm 4 mps 755 mmHg 80%
    17:00 -2°C° 0 mm 4 mps 755 mmHg 80%
    18:00 -2°C° 0 mm 4 mps 755 mmHg 80%
    19:00 -3°C° 0 mm 4 mps 755 mmHg 80%
    20:00 -3°C° 0 mm 4 mps 755 mmHg 79%
    21:00 -3°C° 0 mm 4 mps 755 mmHg 79%
    22:00 -3°C° 0 mm 4 mps 755 mmHg 78%
    23:00 -3°C° 0 mm 4 mps 755 mmHg 77%

    20 December, Thursday

    Time Temperature Precipitation Wind Pressure Humidity
    00:00 -2°C° 0 mm 4 mps 754 mmHg 76%
    01:00 -2°C° 0 mm 4 mps 754 mmHg 75%
    02:00 -2°C° 0 mm 4 mps 754 mmHg 75%
    03:00 -3°C° 0 mm 4 mps 754 mmHg 75%
    04:00 -2°C° 0 mm 3 mps 754 mmHg 75%
    05:00 -2°C° 0 mm 3 mps 754 mmHg 74%
    06:00 -2°C° 0 mm 3 mps 754 mmHg 74%
    07:00 -2°C° 0 mm 3 mps 753 mmHg 74%
    08:00 -1°C° 0 mm 3 mps 754 mmHg 73%
    09:00 -2°C° 0 mm 4 mps 754 mmHg 72%
    10:00 -1°C° 0 mm 4 mps 754 mmHg 71%
    11:00 -1°C° 0 mm 4 mps 754 mmHg 71%
    12:00 -1°C° 0 mm 4 mps 754 mmHg 71%
    13:00 -1°C° 0 mm 4 mps 753 mmHg 71%
    14:00 0°C° 0 mm 3 mps 753 mmHg 73%
    15:00 -1°C° 0 mm 3 mps 753 mmHg 75%
    16:00 -1°C° 0 mm 3 mps 753 mmHg 77%
    17:00 -1°C° 0 mm 3 mps 754 mmHg 78%
    18:00 -1°C° 0 mm 3 mps 754 mmHg 78%
    19:00 -1°C° 0 mm 3 mps 754 mmHg 79%
    20:00 -1°C° 0 mm 3 mps 754 mmHg 80%
    21:00 -1°C° 0 mm 3 mps 755 mmHg 80%
    22:00 -1°C° 0 mm 3 mps 755 mmHg 81%
    23:00 -1°C° 0 mm 3 mps 755 mmHg 82%
    Show more